sat.trackr.live / text

‹ back to catalog

ONEWEB-0144

NORAD 47290 · 2020-100AJ

PAYLOAD ACTIVE UNKNOWN

§ Identity

Operator
Country
UK
Launch date
2020-12-18
Launch site
VOSTO
Launch vehicle
Mass (kg)
RCS (m²)

Purposes: comms

External: N2YO · Heavens-Above · Gunter

§ Orbital elements

Epoch: 2026-09-19T23:26:00.254112Z

Period
109.72 min
Inclination
87.8991°
Eccentricity
0.0001520
Mean motion
13.12441731 rev/d
Perigee alt
1,212.6 km
Apogee alt
1,214.9 km
Semi-major
7,591.9 km
B*
-3.8801e-4
RAAN
331.8301°
Arg perigee
99.7681°
Mean anomaly
260.3619°
Rev number
27,700

§ Raw data

ONEWEB-01441 47290U 20100AJ  26262.97639183 -.00000127  00000+0 -38801-3 0  99932 47290  87.8991 331.8301 0001520  99.7681 260.3619 13.12441731277003

JSON: /api/v1/satellites/47290 · /tle

For live sub-satellite position, see the globe view (requires WebGL).

§ Visibility from observer

Set your observer location to see the next 7 days of passes ≥ 10°. The values pass through the URL so the page stays shareable.

No JS? Fill the form by hand. The geolocation button needs JavaScript.